This demonstration page uses our WeatherBlox Daily Observations layout. Learn more.

Hourly Observations for July 28, 2015

Temp ( °F °C ) Dew Point ( °F °C ) Humidity (%) Winds ( mph kmh ) Pressure ( in mb ) Visibility ( mi km ) Precip ( " mm )
12:15 am 00:15 Clear 80 26.7 65 18.5 61 61 SSE 15 24 29.65 1004 10 16.0934 0 0
12:35 am 00:35 Clear 80 26.7 65 18.6 61 61 SSE 16 26 29.65 1004 10 16.0934 0 0
12:55 am 00:55 Clear 80 26.6 66 18.8 62 62 S 17 28 29.65 1004 10 16.0934 0 0
1:15 am 01:15 Clear 80 26.4 66 19 64 64 S 18 30 29.65 1004 10 16.0934 0 0
1:35 am 01:35 Clear 79 26 66 19.1 66 66 S 15 24 29.65 1004 10 16.0934 0 0
1:55 am 01:55 Clear 79 25.9 67 19.3 67 67 S 13 20 29.65 1004 10 16.0934 0 0
2:15 am 02:15 Clear 78 25.6 67 19.7 70 70 S 13 20 29.65 1004 10 16.0934 0 0
2:35 am 02:35 Clear 78 25.5 68 19.8 71 71 S 13 20 29.65 1004 10 16.0934 0 0
2:55 am 02:55 Clear 78 25.5 68 20 72 72 S 12 19 29.65 1004 10 16.0934 0 0
3:15 am 03:15 Clear 78 25.5 68 20.2 73 73 S 12 19 29.65 1004 10 16.0934 0 0
3:35 am 03:35 Clear 78 25.8 68 20 70 70 S 16 26 29.62 1003 10 16.0934 0 0
3:55 am 03:55 Clear 79 26.2 68 20 69 69 S 17 28 29.62 1003 10 16.0934 0 0
4:15 am 04:15 Clear 80 26.4 68 19.9 68 68 S 15 24 29.62 1003 10 16.0934 0 0
4:35 am 04:35 Clear 79 26.2 68 19.8 68 68 S 15 24 29.62 1003 10 16.0934 0 0
4:55 am 04:55 Clear 79 26 68 19.8 69 69 S 17 28 29.62 1003 10 16.0934 0 0
5:15 am 05:15 Clear 79 26 67 19.7 68 68 SSW 16 26 29.62 1003 10 16.0934 0 0
5:35 am 05:35 Clear 78 25.8 67 19.6 69 69 SSW 12 19 29.65 1004 10 16.0934 0 0
5:55 am 05:55 Clear 78 25.7 67 19.5 69 69 SW 10 17 29.65 1004 10 16.0934 0 0
6:15 am 06:15 Clear 78 25.4 67 19.5 70 70 SSW 10 17 29.65 1004 10 16.0934 0 0
6:35 am 06:35 Sunny 76 24.5 67 19.5 74 74 SSW 3 6 29.65 1004 10 16.0934 0 0
6:55 am 06:55 Sunny 75 24 67 19.6 76 76 SW 3 6 29.68 1005 10 16.0934 0 0
7:15 am 07:15 Sunny 75 24 68 19.8 77 77 SSW 5 7 29.68 1005 10 16.0934 0 0
7:35 am 07:35 Sunny 76 24.5 68 19.9 76 76 SSW 6 9 29.65 1004 10 16.0934 0 0
7:55 am 07:55 Sunny 77 25.1 68 19.9 73 73 SSW 5 7 29.68 1005 10 16.0934 0 0
8:15 am 08:15 Sunny 78 25.8 68 20.1 71 71 SSW 5 7 29.68 1005 10 16.0934 0 0
8:35 am 08:35 Sunny 80 26.8 68 20.1 67 67 W 5 7 29.68 1005 10 16.0934 0 0
8:55 am 08:55 Sunny 78 25.6 68 20 71 71 NNW 17 28 29.71 1006 10 16.0934 0 0
9:15 am 09:15 Sunny 75 24.1 62 16.6 63 63 N 21 33 29.77 1008 10 16.0934 0 0
9:35 am 09:35 Partly Cloudy 75 23.7 62 16.5 64 64 N 15 24 29.77 1008 10 16.0934 0 0
9:55 am 09:55 Partly Cloudy 73 22.8 60 15.7 64 64 N 20 31 29.8 1009 10 16.0934 0 0
10:15 am 10:15 Sunny 72 22.2 58 14.7 63 63 N 22 35 29.83 1010 10 16.0934 0 0
10:35 am 10:35 Sunny 72 22.3 58 14.7 62 62 N 21 33 29.83 1010 10 16.0934 0 0
10:55 am 10:55 Sunny 72 22.4 59 15.2 64 64 N 21 33 29.85 1011 10 16.0934 0 0
11:15 am 11:15 Sunny 73 22.8 58 14.4 59 59 N 16 26 29.83 1010 10 16.0934 0 0
11:35 am 11:35 Sunny 75 23.7 56 13.6 53 53 N 22 35 29.83 1010 10 16.0934 0 0
11:55 am 11:55 Sunny 75 24.1 57 13.8 53 53 N 16 26 29.85 1011 10 16.0934 0 0
12:15 pm 12:15 Sunny 76 24.4 56 13.6 51 51 N 20 31 29.85 1011 10 16.0934 0 0
12:35 pm 12:35 Sunny 77 25 56 13.2 48 48 N 15 24 29.85 1011 10 16.0934 0 0
12:55 pm 12:55 Sunny 78 25.3 55 12.8 46 46 N 15 24 29.85 1011 10 16.0934 0 0
1:15 pm 13:15 Sunny 78 25.6 54 12.2 43 43 N 20 31 29.85 1011 10 16.0934 0 0
1:35 pm 13:35 Sunny 79 26.1 55 12.6 43 43 N 17 28 29.85 1011 10 16.0934 0 0
1:55 pm 13:55 Sunny 78 25.5 53 11.6 42 42 N 15 24 29.85 1011 10 16.0934 0 0
2:15 pm 14:15 Sunny 80 26.4 53 11.5 39 39 N 12 19 29.88 1012 10 16.0934 0 0
2:35 pm 14:35 Sunny 78 25.8 53 11.9 42 42 N 16 26 29.88 1012 10 16.0934 0 0
2:55 pm 14:55 Sunny 80 26.5 55 12.9 43 43 N 13 20 29.85 1011 10 16.0934 0 0
3:15 pm 15:15 Sunny 80 26.6 53 11.6 39 39 NNE 15 24 29.85 1011 10 16.0934 0 0
3:35 pm 15:35 Sunny 81 27 54 12.3 40 40 N 15 24 29.85 1011 10 16.0934 0 0
3:55 pm 15:55 Sunny 80 26.7 54 12.2 41 41 N 10 17 29.85 1011 10 16.0934 0 0
4:15 pm 16:15 Sunny 80 26.5 51 10.6 37 37 N 14 22 29.85 1011 10 16.0934 0 0
4:35 pm 16:35 Sunny 81 27 51 10.8 36 36 NNE 14 22 29.85 1011 10 16.0934 0 0
4:55 pm 16:55 Sunny 81 27.3 51 10.3 35 35 NNE 13 20 29.85 1011 10 16.0934 0 0
5:15 pm 17:15 Sunny 81 27.3 52 11 36 36 NNE 12 19 29.85 1011 10 16.0934 0 0
5:35 pm 17:35 Sunny 80 26.9 53 11.8 39 39 NNE 12 19 29.85 1011 10 16.0934 0 0
5:55 pm 17:55 Sunny 81 27 54 12.2 40 40 N 10 17 29.85 1011 10 16.0934 0 0
6:15 pm 18:15 Sunny 81 27.4 53 11.4 37 37 NNE 9 15 29.85 1011 10 16.0934 0 0
6:35 pm 18:35 Sunny 81 27.2 56 13.1 42 42 NNE 9 15 29.85 1011 10 16.0934 0 0
6:55 pm 18:55 Sunny 80 26.5 57 13.8 46 46 N 8 13 29.85 1011 10 16.0934 0 0
7:15 pm 19:15 Sunny 79 26 57 14 48 48 NNE 7 11 29.88 1012 10 16.0934 0 0
7:35 pm 19:35 Sunny 77 25.1 60 15.4 55 55 N 7 11 29.88 1012 10 16.0934 0 0
7:55 pm 19:55 Sunny 75 24 61 15.9 61 61 N 6 9 29.91 1013 10 16.0934 0 0
8:15 pm 20:15 Sunny 73 23 61 16.1 65 65 N 7 11 29.94 1014 10 16.0934 0 0
8:35 pm 20:35 Sunny 71 21.5 62 16.5 73 73 NNE 6 9 29.94 1014 10 16.0934 0 0
8:55 pm 20:55 Sunny 69 20.7 60 15.7 73 73 N 5 7 29.94 1014 10 16.0934 0 0
9:15 pm 21:15 Clear 68 19.8 61 15.9 78 78 N 3 6 29.94 1014 10 16.0934 0 0
9:35 pm 21:35 Clear 68 20 58 14.7 72 72 N 6 9 29.94 1014 10 16.0934 0 0
9:55 pm 21:55 Clear 65 18.5 58 14.5 78 78 N 7 11 30 1016 10 16.0934 0 0
10:15 pm 22:15 Clear 64 17.8 58 14.6 82 82 N 8 13 30 1016 10 16.0934 0 0
10:35 pm 22:35 Clear 64 17.7 58 14.2 80 80 N 7 11 30 1016 10 16.0934 0 0
10:55 pm 22:55 Clear 64 17.5 58 14.2 81 81 N 5 7 30 1016 10 16.0934 0 0
11:15 pm 23:15 Clear 64 17.5 57 13.8 79 79 N 5 7 30.03 1017 10 16.0934 0 0
11:35 pm 23:35 Clear 63 17.1 57 13.7 81 81 N 3 6 30.03 1017 10 16.0934 0 0
11:55 pm 23:55 Clear 62 16.9 57 13.7 82 82 N 3 6 30.03 1017 10 16.0934 0 0

Powered by AerisWeather